Location: Borea
(45.6167°N, 23.0167°E)
Time: 02:24:46
(UTC+00:00)

OPS 8068 - Pass Details

Date: 21 February 2024
Orbit: 631 x 963 km, 98.3° (Epoch: 13 April)

Event Time Altitude Azimuth Distance (km) Brightness Sun altitude
Rises 02:00:16 0° 127° (SE) 2,914 ? -35.4°
Reaches altitude 10° 02:02:50 10° 112° (ESE) 2,016 ? -34.9°
Maximum altitude 02:06:06 21° 63° (ENE) 1,435 ? -34.4°
Drops below altitude 10° 02:09:29 10° 14° (NNE) 2,082 ? -33.9°
Sets 02:12:11 0° 359° (N) 3,040 ? -33.4°
